Regional Weather Roundup
Issued by NWS

Home | Current Version | Previous Version | Text Only | Print | Product List | Glossary On
Versions: 1 2 3 4 5 6 7 8 9 10 11 12 13 14 15 16 17 18 19 20 21 22 23 24 25 26 27 28 29 30 31 32 33 34 35 36 37 38 39 40 41 42 43 44 45 46 47 48 49 50
000
ASUS44 KBMX 260210
RWRAL

ALABAMA REGIONAL WEATHER ROUNDUP
NATIONAL WEATHER SERVICE BIRMINGHAM AL
800 PM CST SUN JAN 25 2015

NOTE: "FAIR" INDICATES FEW OR NO CLOUDS BELOW 12,000 FEET
WITH NO SIGNIFICANT WEATHER AND/OR OBSTRUCTIONS TO VISIBILITY.

THE REMARK "TC" DENOTES TEMPERATURE IN DEGREES CELSIUS.

ALZ001>011-014-016>018-020-260300-
NORTH ALABAMA

CITY           SKY/WX    TMP DP  RH WIND       PRES   REMARKS
MUSCLE SHOALS  MOCLDY    43  40  89 W5        29.79F
HUNTSVILLE     PTCLDY    47  40  76 W14G24    29.76R
DECATUR        MOCLDY    44  40  85 NW15G24   29.77R
HALEYVILLE     FAIR      41  40  96 CALM      29.81F
GADSDEN        CLOUDY    46  41  81 SW5       29.76F
$$

ALZ012-013-022-023-030>036-040>044-260300-
WEST CENTRAL ALABAMA

CITY           SKY/WX    TMP DP  RH WIND       PRES   REMARKS
TUSCALOOSA     MOCLDY    51  41  68 NW9       29.82R
$$

ALZ015-024>027-033>036-040>044-260300-
CENTRAL ALABAMA

CITY           SKY/WX    TMP DP  RH WIND       PRES   REMARKS
BIRMINGHAM     MOCLDY    47  42  83 SW5       29.80S
MONTGOMERY     MOCLDY    54  40  59 SW12G17   29.80R
SHELBY CO ARPT MOCLDY    47  44  90 CALM      29.79F
MAXWELL AFB    MOCLDY    56  40  53 SW13G24   29.78S
GREENVILLE     FAIR      53  39  59 SW8       29.80F
$$

ALZ019-021-028-029-037-038-045>048-260300-
EAST CENTRAL ALABAMA

CITY           SKY/WX    TMP DP  RH WIND       PRES   REMARKS
ANNISTON       LGT RAIN  47  43  86 SW5       29.81R
ALEXANDER CITY CLOUDY    56  40  54 NW13G18   29.80R
AUBURN         CLEAR     48  30  49 S10       29.80S
$$

ALZ051>064-260300-
SOUTHWEST ALABAMA

CITY           SKY/WX    TMP DP  RH WIND       PRES   REMARKS
MOBILE         CLEAR     52  39  61 SW7       29.86S
BROOKLEY FIELD CLEAR     57  43  59 SW7       29.87F
EVERGREEN      CLEAR     52  45  77 SW7       29.83F
$$

ALZ049-050-065>069-260300-
SOUTHEAST ALABAMA

CITY           SKY/WX    TMP DP  RH WIND       PRES   REMARKS
DOTHAN         CLEAR     54  46  74 SW12      29.87F
OZARK          CLEAR     54  46  74 SW9       29.84F
TROY           CLEAR     53  37  54 SW9       29.82F
EUFAULA        FAIR      55  41  59 SW9       29.80F
$$



USA.gov is the U.S. government's official web portal to all federal, state and local government web resources and services.